Torna al catalogo

STARLINK-4150

AttivoComunicazioniVLEO
NORAD 53134·PAYLOAD·🇺🇸 United States

Lanciato Jul 17, 2022 da Cape Canaveral Space Force Station

Loading…

Prossimi Passaggi (prossime 24 ore)

TLE

AggiornatoSource: CelesTrak SupGP

Epoca: Sep 15, 2026, 01:29 UTC

1 53134C 22083C   26258.06229167 -.00032011  00000+0 -94599-3 0  2582
2 53134  53.1593  31.0319 0001161  80.7818 170.1693 15.34399417    16

Traccia STARLINK-4150 in tempo reale con AllMySat

Download on the App Store